This is the latest recevied weather packets stored in our database for station/object KB3VSP. If no packets are shown the sender has not sent any weather packets the latest 10 day(s).
| Time | Temp. | Humidity | Pressure | Rain* | Wind** | Luminosity | Snow |
|---|---|---|---|---|---|---|---|
| 1777816407 | 7.22° C | 67% | 1018.1 hPa | 0 mm | - | 31 W/m² | - |
| 1777816105 | 6.67° C | 67% | 1018 hPa | 0 mm | - | 32 W/m² | - |
| 1777815801 | 6.67° C | 69% | 1017.9 hPa | 0 mm | - | 40 W/m² | - |
| 1777815499 | 6.11° C | 70% | 1018.1 hPa | 0 mm | - | 30 W/m² | - |
| 1777815196 | 6.11° C | 71% | 1018.2 hPa | 0 mm | - | 31 W/m² | - |
| 1777814893 | 5.56° C | 72% | 1018.2 hPa | 0 mm | - | 31 W/m² | - |
| 1777814589 | 5.56° C | 74% | 1018.3 hPa | 0 mm | - | 31 W/m² | - |
| 1777814286 | 5.56° C | 76% | 1018.2 hPa | 0 mm | - | 27 W/m² | - |
| 1777813983 | 5° C | 79% | 1018.3 hPa | 0 mm | - | 39 W/m² | - |
| 1777813680 | 5° C | 79% | 1018.1 hPa | 0 mm | - | 29 W/m² | - |
| 1777813377 | 4.44° C | 81% | 1018.3 hPa | 0 mm | - | 25 W/m² | - |
| 1777813075 | 4.44° C | 84% | 1018.3 hPa | 0 mm | - | 30 W/m² | - |
| 1777812773 | 4.44° C | 84% | 1018 hPa | 0 mm | - | 28 W/m² | - |
| 1777812469 | 3.89° C | 84% | 1018 hPa | 0 mm | - | 23 W/m² | - |
| 1777812167 | 3.33° C | 89% | 1018 hPa | 0 mm | - | 23 W/m² | - |
| 1777811864 | 3.33° C | 90% | 1018 hPa | 0 mm | - | 22 W/m² | - |
| 1777811563 | 2.78° C | 92% | 1018 hPa | 0 mm | - | 20 W/m² | - |
| 1777811252 | 2.22° C | 94% | 1018 hPa | 0 mm | - | 19 W/m² | - |
| 1777810950 | 2.22° C | 96% | 1017.7 hPa | 0 mm | - | 19 W/m² | - |
| 1777810646 | 1.67° C | 98% | 1018 hPa | 0 mm | - | 19 W/m² | - |
| 1777810343 | 1.67° C | 98% | 1017.8 hPa | 0 mm | - | 19 W/m² | - |
| 1777810039 | 1.11° C | 99% | 1017.9 hPa | 0 mm | - | 16 W/m² | - |
| 1777809738 | 1.11° C | 99% | 1017.8 hPa | 0 mm | - | 16 W/m² | - |
| 1777809434 | 1.11° C | 99% | 1017.9 hPa | 0 mm | - | 16 W/m² | - |
| 1777809132 | 0.56° C | 99% | 1017.8 hPa | 0 mm | - | 15 W/m² | - |
* Rain latest hour (hover to see other rain measurements)
** Current wind speed in m/s (hover to see current wind gust speed)